Location: Easthampton
(42.2676°N, 72.6690°W)
Time: 23:33:14
(UTC+00:00)

AO-91 - Pass Details

Date: 05 April 2023
Orbit: 446 x 775 km, 97.6° (Epoch: 28 May)

Event Time Altitude Azimuth Distance (km) Brightness Sun altitude
Rises 03:05:24 0° 12° (NNE) 3,251 ? -35.9°
Reaches altitude 10° 03:07:43 10° 13° (NNE) 2,334 ? -36.1°
Enters shadow 03:09:16 20° 14° (NNE) 1,741 ? -36.3°
